Janesville, WI

9:54 PM CST on February 18, 2018 (GMT -0600)
Rock County

Weather History for KJVL - April, 2014

Change the Weather History Date:

Tuesday, April 1, 2014

  Actual Average Record
Temperature  
Mean Temperature 42 °F -  
Max Temperature 55 °F 50 °F 77 °F (2015)
Min Temperature 28 °F 31 °F 25 °F (1993)
Degree Days  
Heating Degree Days 24    
Moisture  
Dew Point 26 °F    
Average Humidity 60    
Maximum Humidity 75    
Minimum Humidity 43    
Precipitation  
Precipitation 0.00 in - - ()
Sea Level Pressure  
Sea Level Pressure 29.82 in    
Wind  
Wind Speed 18 mph (West)    
Max Wind Speed 29 mph    
Max Gust Speed 39 mph    
Visibility 10 miles    
Events      
Averages and records for this station are not official NWS values.
T = Trace of Precipitation, MM = Missing Value Source: NWS Daily Summary

Daily Weather History Graph

Daily Weather History Graph

Search for Another Location

Airport or City:

Trip Planner

Search our weather history database for the weather conditions in past years. The results will help you decide how hot, cold, wet, or windy it might be!

Date:

Astronomy

Apr. 01, 2014 Rise Set
Actual Time 6:38 AM CDT 7:22 PM CDT
Civil Twilight 6:09 AM CDT 7:50 PM CDT
Nautical Twilight 5:36 AM CDT 8:24 PM CDT
Astronomical Twilight 5:01 AM CDT 8:59 PM CDT
Moon 7:38 AM CDT (4/1) 9:48 PM CDT (4/1)
Length of Visible Light 13h 40m
Length of Day
12h 43m
Waxing Crescent, 5% of the Moon is Illuminated
Apr 1
Waxing Crescent
Apr 7
First Quarter
Apr 15
Full
Apr 22
Last Quarter
Apr 29
New

Hourly Weather History & Observations

Time (CDT) Temp. Windchill Dew Point Humidity Pressure Visibility Wind Dir Wind Speed Gust Speed Precip Events Conditions
12:15 AM 55.4 °F - 37.4 °F 51% 29.62 in 10.0 mi SSW 21.9 mph 28.8 mph N/A   Scattered Clouds
12:35 AM 55.4 °F - 37.4 °F 51% 29.61 in 10.0 mi SW 18.4 mph 24.2 mph N/A   Scattered Clouds
1:15 AM 53.6 °F - 39.2 °F 58% 29.63 in 10.0 mi SW 17.3 mph 28.8 mph N/A   Overcast
1:35 AM 50.0 °F - 35.6 °F 58% 29.64 in 10.0 mi WSW 24.2 mph 29.9 mph N/A   Mostly Cloudy
1:55 AM 48.2 °F - 33.8 °F 58% 29.64 in 10.0 mi WSW 16.1 mph 26.5 mph N/A   Scattered Clouds
2:15 AM 46.4 °F 39.2 °F 32.0 °F 57% 29.64 in 10.0 mi WSW 18.4 mph 32.2 mph N/A   Clear
2:35 AM 44.6 °F 36.6 °F 28.4 °F 53% 29.64 in 10.0 mi WSW 19.6 mph 33.4 mph N/A   Clear
2:55 AM 42.8 °F 33.8 °F 26.6 °F 53% 29.65 in 10.0 mi WSW 21.9 mph 27.6 mph N/A   Clear
3:15 AM 41.0 °F 30.9 °F 23.0 °F 49% 29.65 in 10.0 mi WSW 24.2 mph 34.5 mph N/A   Clear
3:35 AM 37.4 °F 26.9 °F 23.0 °F 56% 29.66 in 10.0 mi WSW 20.7 mph 32.2 mph N/A   Clear
3:55 AM 35.6 °F 25.9 °F 23.0 °F 60% 29.66 in 10.0 mi WSW 16.1 mph 31.1 mph N/A   Scattered Clouds
4:15 AM 35.6 °F 26.6 °F 24.8 °F 65% 29.67 in 10.0 mi WSW 13.8 mph 17.3 mph N/A   Mostly Cloudy
4:35 AM 35.6 °F 24.8 °F 26.6 °F 70% 29.67 in 10.0 mi West 19.6 mph 26.5 mph N/A   Overcast
4:55 AM 33.8 °F 23.5 °F 26.6 °F 75% 29.68 in 10.0 mi WSW 16.1 mph 24.2 mph N/A   Overcast
5:15 AM 33.8 °F 23.5 °F 24.8 °F 70% 29.68 in 10.0 mi WSW 16.1 mph 26.5 mph N/A   Overcast
5:35 AM 32.0 °F 20.1 °F 21.2 °F 64% 29.70 in 10.0 mi WSW 19.6 mph 31.1 mph N/A   Overcast
5:45 AM 33.8 °F 23.5 °F 21.2 °F 60% 29.70 in 10.0 mi WSW 16.1 mph 21.9 mph N/A   Overcast
6:45 AM 32.0 °F 19.2 °F 21.2 °F 64% 29.73 in 10.0 mi West 23.0 mph 28.8 mph N/A   Overcast
7:45 AM 30.2 °F 15.9 °F 17.6 °F 60% 29.76 in 10.0 mi WSW 26.5 mph 39.1 mph N/A   Overcast
8:45 AM 28.4 °F 13.0 °F 17.6 °F 64% 29.77 in 10.0 mi WSW 28.8 mph 36.8 mph N/A   Overcast
9:45 AM 30.2 °F 15.9 °F 17.6 °F 60% 29.79 in 10.0 mi WSW 26.5 mph 32.2 mph N/A   Overcast
10:45 AM 30.2 °F 16.8 °F 17.6 °F 60% 29.81 in 10.0 mi WSW 23.0 mph 31.1 mph N/A   Overcast
11:45 AM 32.0 °F 19.2 °F 19.4 °F 60% 29.85 in 10.0 mi West 23.0 mph 34.5 mph N/A   Overcast
12:45 PM 33.8 °F 21.3 °F 19.4 °F 56% 29.87 in 10.0 mi WSW 24.2 mph 32.2 mph N/A   Overcast
1:45 PM 39.2 °F 28.7 °F 21.2 °F 49% 29.88 in 10.0 mi West 23.0 mph 31.1 mph N/A   Mostly Cloudy
2:45 PM 41.0 °F 31.4 °F 21.2 °F 45% 29.89 in 10.0 mi West 21.9 mph 31.1 mph N/A   Partly Cloudy
3:45 PM 44.6 °F 36.9 °F 23.0 °F 43% 29.89 in 10.0 mi West 18.4 mph 25.3 mph N/A   Clear
4:45 PM 46.4 °F 39.5 °F 24.8 °F 43% 29.91 in 10.0 mi West 17.3 mph 23.0 mph N/A   Clear
5:45 PM 46.4 °F 39.2 °F 24.8 °F 43% 29.95 in 10.0 mi West 18.4 mph 24.2 mph N/A   Clear
6:45 PM 44.6 °F 38.8 °F 24.8 °F 46% 29.97 in 10.0 mi West 11.5 mph 17.3 mph N/A   Clear
7:45 PM 41.0 °F 35.8 °F 26.6 °F 57% 30.00 in 10.0 mi West 8.1 mph - N/A   Clear
8:45 PM 39.2 °F 33.6 °F 26.6 °F 61% 30.02 in 10.0 mi West 8.1 mph - N/A   Clear
9:15 PM 39.2 °F 34.2 °F 28.4 °F 65% 30.02 in 10.0 mi WNW 6.9 mph - N/A   Clear
9:35 PM 37.4 °F 32.8 °F 28.4 °F 70% 30.03 in 10.0 mi West 5.8 mph - N/A   Clear
9:55 PM 37.4 °F 31.4 °F 28.4 °F 70% 30.04 in 10.0 mi West 8.1 mph - N/A   Clear
10:15 PM 37.4 °F 34.9 °F 28.4 °F 70% 30.05 in 10.0 mi West 3.5 mph - N/A   Clear
10:35 PM 37.4 °F 32.1 °F 28.4 °F 70% 30.06 in 10.0 mi West 6.9 mph - N/A   Clear
10:55 PM 37.4 °F 33.8 °F 28.4 °F 70% 30.06 in 10.0 mi West 4.6 mph - N/A   Scattered Clouds
11:15 PM 37.4 °F 30.3 °F 28.4 °F 70% 30.06 in 10.0 mi WNW 10.4 mph - N/A   Mostly Cloudy
11:35 PM 37.4 °F 30.8 °F 28.4 °F 70% 30.07 in 10.0 mi WNW 9.2 mph - N/A   Mostly Cloudy
11:55 PM 37.4 °F 32.1 °F 28.4 °F 70% 30.07 in 10.0 mi NW 6.9 mph - N/A   Mostly Cloudy